Home > Weather > Hilversum > Past weeks

Flag for Netherlands Past Weather in Hilversum, Netherlands — Yesterday and Last 2 Weeks

Now
68 °F

Rain showers. Overcast.


Feels Like: 68 °F
Forecast: 59 / 65 °F
Wind: 6 mph from Northeast

Location: De Bilt

Current Time: May 29, 2016 at 3:36:28 PM

Latest Report: May 29, 2016 at 2:00 PM


Visibility: 7 mi

Pressure: 29.78 "Hg

Humidity: 74%

Dew Point: 59 °F

Location of HilversumLocation

Past Weather in Hilversum — Graph

°F

Hilversum Temperature Yesterday

Maximum temperature yesterday: 71 °F (at 3:00 PM)
Minimum temperature yesterday: 53 °F (at 5:00 AM)
Average temperature yesterday: 63 °F

High & Low Weather Summary for the Past Weeks

 TemperatureHumidityPressure
High73 °F (May 21, 6:00 PM)100% (May 26, 2:00 AM)30.15 "Hg (May 26, 2:00 AM)
Low40 °F (May 16, 3:00 AM)46% (May 15, 6:00 PM)29.67 "Hg (May 18, 7:00 PM)
Average56 °F78%29.95 "Hg
* Reported May 14 2:00 PM — May 29 2:00 PM, Hilversum, Weather by CustomWeather, © 2016

Note: Actual official high and low records may vary slightly from our data, if they occured in-between our weather recording intervals... More about our weather records

Advertising

Hilversum Weather History for the Previous 24 Hours

Scroll right to see more
 ConditionsComfort  
Time TempWeatherWind HumidityBarometerVisibility
2:00 PM
Sun, May 29
68 °FRain showers. Overcast.6 mph74%29.78 "Hg7 mi
1:00 PM66 °FOvercast.6 mph79%29.78 "Hg7 mi
12:00 PM65 °FOvercast.5 mph81%29.79 "Hg8 mi
11:00 AM64 °FOvercast.5 mph80%29.79 "Hg10 mi
10:00 AM63 °FOvercast.3 mph82%29.79 "Hg9 mi
9:00 AM62 °FOvercast.3 mph83%29.78 "Hg10 mi
8:00 AM61 °FOvercast.5 mph85%29.79 "Hg10 mi
7:00 AM59 °FOvercast.5 mph86%29.79 "Hg8 mi
6:00 AM57 °FFog.2 mph91%29.80 "Hg6 mi
5:00 AM58 °FFog.2 mph90%29.81 "Hg6 mi
4:00 AM59 °FFog.5 mph90%29.80 "Hg5 mi
3:00 AM59 °FFog.3 mph91%29.82 "Hg4 mi
2:00 AM60 °FPassing clouds.2 mph90%29.84 "Hg4 mi
1:00 AM61 °FClear.3 mph87%29.84 "Hg4 mi
12:00 AM62 °FFog.3 mph85%29.85 "Hg5 mi
11:00 PM
Sat, May 28
64 °FOvercast.3 mph82%29.86 "Hg6 mi
10:00 PM66 °FOvercast.3 mph78%29.87 "Hg7 mi
9:00 PM67 °FPartly sunny.2 mph73%29.87 "Hg10 mi
8:00 PM69 °FOvercast.3 mph72%29.86 "Hg9 mi
7:00 PM70 °FPassing clouds.5 mph65%29.86 "Hg9 mi
6:00 PM68 °FPartly sunny.3 mph74%29.88 "Hg8 mi
5:00 PM67 °FLow clouds.5 mph78%29.89 "Hg6 mi
4:00 PM70 °FLight rain. Scattered clouds.6 mph69%29.90 "Hg7 mi
3:00 PM71 °FOvercast.3 mph63%29.91 "Hg7 mi
Weather by CustomWeather, © 2016

See weather overviewHow to use our weather pages